Date String (YYYY-MM-DD hh:mm:ss) UTC,Instrument flags,Ambient pressure (hPa),Sample flow (lpm),Bypass flow (lpm),Sample temperature (°C),Ambient temperature (°C),ASC tube jacket temperature (°C),LED temperature (°C),Box temperature (°C),Sample RH (%),Span deviation,Mass concentration (μg/m³),Mass concentration (μg/m³),Mass concentration (μg/m³)
DateTimeUTC,F1_M11,P_M11,Q1_M11,Q2_M11,T1_M11,T2_M11,T3_M11,T4_M11,T5_M11,U1_M11,ZSPAN_M11,X0_M11,X2_M11,X1_M11
2022-10-04 03:00:00,,0831.4,4.99,0.00,30.2,28.7,00.0,39.0,32.0,25.9,0000.0,0006.80,0004.20,0003.91
2022-10-04 03:01:00,,0831.4,5.01,0.00,30.2,28.6,00.0,38.9,32.0,26.1,0000.0,0006.99,0004.29,0003.99
2022-10-04 03:02:00,,0831.4,5.01,0.00,30.2,28.5,00.0,38.9,32.0,26.0,0000.0,0007.04,0004.32,0004.05
2022-10-04 03:03:00,,0831.4,5.01,0.00,30.2,28.4,00.0,38.9,32.0,26.0,0000.0,0007.17,0004.36,0004.08
2022-10-04 03:04:00,,0831.4,4.99,0.00,30.1,28.4,00.0,38.9,31.9,26.1,0000.0,0007.35,0004.42,0004.12
2022-10-04 03:05:00,,0831.5,5.00,0.00,30.1,28.4,00.0,38.9,31.9,26.6,0000.0,0007.53,0004.50,0004.16
2022-10-04 03:06:00,,0831.5,4.99,0.00,30.1,28.4,00.0,38.9,31.9,26.8,0000.0,0007.57,0004.57,0004.21
2022-10-04 03:07:00,,0831.5,5.00,0.00,30.1,28.4,00.0,38.9,31.9,27.0,0000.0,0007.63,0004.61,0004.25
2022-10-04 03:08:00,,0831.5,5.01,0.00,30.1,28.4,00.0,38.9,31.9,27.3,0000.0,0007.76,0004.68,0004.31
2022-10-04 03:09:00,,0831.5,4.99,0.00,30.1,28.4,00.0,38.9,31.9,27.4,0000.0,0008.09,0004.75,0004.37
2022-10-04 03:10:00,,0831.5,5.00,0.00,30.1,28.3,00.0,38.9,31.9,27.4,0000.0,0008.53,0004.81,0004.41
2022-10-04 03:11:00,,0831.5,5.00,0.00,30.1,28.2,00.0,38.9,31.8,27.4,0000.0,0008.59,0004.83,0004.44
2022-10-04 03:12:00,,0831.5,5.00,0.00,30.0,28.2,00.0,38.9,31.8,27.2,0000.0,0008.61,0004.83,0004.45
2022-10-04 03:13:00,,0831.5,4.99,0.00,30.0,28.2,00.0,38.9,31.8,27.3,0000.0,0008.66,0004.83,0004.44
2022-10-04 03:14:00,,0831.5,4.99,0.00,30.0,28.2,00.0,38.9,31.8,27.4,0000.0,0008.67,0004.87,0004.46
2022-10-04 03:15:00,,0831.5,5.00,0.00,30.0,28.1,00.0,38.8,31.7,27.3,0000.0,0008.65,0004.87,0004.46
2022-10-04 03:16:00,,0831.5,5.00,0.00,30.0,28.1,00.0,38.8,31.7,27.4,0000.0,0008.49,0004.81,0004.44
2022-10-04 03:17:00,,0831.5,5.00,0.00,30.0,28.1,00.0,38.8,31.7,27.9,0000.0,0008.43,0004.78,0004.42
2022-10-04 03:18:00,,0831.5,4.99,0.00,29.9,28.0,00.0,38.8,31.7,28.3,0000.0,0008.39,0004.78,0004.42
2022-10-04 03:19:00,,0831.6,5.01,0.00,29.9,27.9,00.0,38.8,31.6,28.5,0000.0,0008.34,0004.78,0004.44
2022-10-04 03:20:00,,0831.5,5.01,0.00,29.9,27.9,00.0,38.8,31.6,28.9,0000.0,0008.13,0004.80,0004.43
2022-10-04 03:21:00,,0831.5,5.01,0.00,29.9,28.0,00.0,38.8,31.6,28.4,0000.0,0007.78,0004.79,0004.41
2022-10-04 03:22:00,,0831.5,4.99,0.00,29.9,28.0,00.0,38.8,31.6,28.0,0000.0,0007.77,0004.79,0004.41
2022-10-04 03:23:00,,0831.5,4.99,0.00,29.9,27.9,00.0,38.7,31.6,27.8,0000.0,0007.83,0004.81,0004.40
2022-10-04 03:24:00,,0831.5,5.00,0.00,29.8,27.9,00.0,38.7,31.6,27.7,0000.0,0007.98,0004.80,0004.39
2022-10-04 03:25:00,,0831.5,5.01,0.00,29.8,27.9,00.0,38.7,31.6,27.0,0000.0,0008.31,0004.77,0004.35
2022-10-04 03:26:00,,0831.5,4.99,0.00,29.8,27.9,00.0,38.7,31.5,27.0,0000.0,0008.27,0004.74,0004.33
2022-10-04 03:27:00,,0831.5,5.00,0.00,29.8,27.9,00.0,38.7,31.5,27.3,0000.0,0008.30,0004.73,0004.32
2022-10-04 03:28:00,,0831.5,5.00,0.00,29.8,27.8,00.0,38.7,31.5,27.3,0000.0,0008.39,0004.75,0004.31
2022-10-04 03:29:00,,0831.5,5.00,0.00,29.8,27.9,00.0,38.7,31.5,27.3,0000.0,0008.31,0004.69,0004.27
2022-10-04 03:30:00,,0831.4,4.99,0.00,29.7,27.8,00.0,38.6,31.5,27.2,0000.0,0008.55,0004.62,0004.22
2022-10-04 03:31:00,,0831.4,5.00,0.00,29.7,27.8,00.0,38.6,31.5,26.8,0000.0,0008.53,0004.55,0004.18
2022-10-04 03:32:00,,0831.4,5.01,0.00,29.7,27.7,00.0,38.6,31.4,26.5,0000.0,0008.45,0004.51,0004.16
2022-10-04 03:33:00,,0831.4,4.99,0.00,29.7,27.7,00.0,38.6,31.4,26.6,0000.0,0008.43,0004.49,0004.15
2022-10-04 03:34:00,,0831.4,5.01,0.00,29.7,27.7,00.0,38.6,31.4,26.8,0000.0,0008.37,0004.47,0004.14
2022-10-04 03:35:00,,0831.4,5.01,0.00,29.7,27.7,00.0,38.6,31.4,26.8,0000.0,0008.22,0004.46,0004.13
2022-10-04 03:36:00,,0831.4,4.99,0.00,29.6,27.6,00.0,38.6,31.4,26.8,0000.0,0007.79,0004.46,0004.13
2022-10-04 03:37:00,,0831.3,4.99,0.00,29.6,27.6,00.0,38.6,31.3,26.7,0000.0,0007.74,0004.42,0004.11
2022-10-04 03:38:00,,0831.4,5.01,0.00,29.6,27.6,00.0,38.5,31.3,26.8,0000.0,0007.73,0004.41,0004.11
2022-10-04 03:39:00,,0831.3,5.00,0.00,29.6,27.6,00.0,38.5,31.3,26.8,0000.0,0007.66,0004.37,0004.08
2022-10-04 03:40:00,,0831.3,5.00,0.00,29.6,27.6,00.0,38.5,31.3,26.8,0000.0,0007.68,0004.37,0004.06
2022-10-04 03:41:00,,0831.3,5.00,0.00,29.5,27.6,00.0,38.5,31.3,26.6,0000.0,0007.32,0004.36,0004.04
2022-10-04 03:42:00,,0831.4,5.00,0.00,29.5,27.6,00.0,38.5,31.3,26.7,0000.0,0007.26,0004.36,0004.02
2022-10-04 03:43:00,,0831.4,5.00,0.00,29.5,27.6,00.0,38.4,31.3,26.9,0000.0,0007.18,0004.34,0004.00
2022-10-04 03:44:00,,0831.4,5.00,0.00,29.5,27.6,00.0,38.4,31.3,26.8,0000.0,0007.05,0004.29,0003.97
2022-10-04 03:45:00,,0831.4,5.00,0.00,29.5,27.6,00.0,38.4,31.2,26.5,0000.0,0006.94,0004.26,0003.94
2022-10-04 03:46:00,,0831.4,5.00,0.00,29.5,27.6,00.0,38.4,31.2,26.4,0000.0,0006.75,0004.20,0003.91
2022-10-04 03:47:00,,0831.4,5.00,0.00,29.5,27.6,00.0,38.4,31.2,26.3,0000.0,0006.75,0004.16,0003.87
2022-10-04 03:48:00,,0831.4,4.99,0.00,29.5,27.6,00.0,38.4,31.2,26.3,0000.0,0006.77,0004.14,0003.84
2022-10-04 03:49:00,,0831.4,5.01,0.00,29.4,27.5,00.0,38.4,31.2,26.2,0000.0,0006.77,0004.11,0003.81
2022-10-04 03:50:00,,0831.4,5.00,0.00,29.4,27.5,00.0,38.4,31.2,26.1,0000.0,0006.61,0004.06,0003.78
2022-10-04 03:51:00,,0831.4,5.00,0.00,29.4,27.5,00.0,38.3,31.1,26.0,0000.0,0006.36,0003.99,0003.74
2022-10-04 03:52:00,,0831.4,5.00,0.00,29.4,27.5,00.0,38.3,31.1,25.8,0000.0,0006.56,0003.93,0003.70
2022-10-04 03:53:00,,0831.4,5.00,0.00,29.4,27.5,00.0,38.3,31.1,25.7,0000.0,0006.67,0003.91,0003.66
2022-10-04 03:54:00,,0831.4,5.00,0.00,29.4,27.5,00.0,38.3,31.1,25.5,0000.0,0006.64,0003.86,0003.62
2022-10-04 03:55:00,,0831.4,5.00,0.00,29.4,27.5,00.0,38.3,31.1,25.2,0000.0,0006.75,0003.84,0003.58
2022-10-04 03:56:00,,0831.4,4.99,0.00,29.4,27.5,00.0,38.3,31.1,25.1,0000.0,0007.20,0003.80,0003.54
2022-10-04 03:57:00,,0831.4,5.01,0.00,29.4,27.5,00.0,38.3,31.1,25.2,0000.0,0007.19,0003.78,0003.51
2022-10-04 03:58:00,,0831.3,5.00,0.00,29.4,27.6,00.0,38.3,31.1,25.6,0000.0,0007.07,0003.75,0003.50
2022-10-04 03:59:00,,0831.4,4.99,0.00,29.4,27.7,00.0,38.2,31.1,26.0,0000.0,0007.10,0003.77,0003.50
